x

8551762 - Delaware City, De (deld1) Weather Station

12:54pm - Sun 29th May 2016 All times are EDT. -4 hours from GMT.

  • Wind
    9mph, 11mph gusts
  • Sea Temp 72°f
  • Air Temp 79°f
  • Sea Pressure 1020.4mb
  • 8551762 - Delaware City, De
  • 8551762 - Delaware City, De

More Historic Weather Station data

Upgrade to MSW Pro to gain access to the past 30 days of data for over 8000 Wavebouys and Weather Stations around the globe.

Join Pro

Comparision Forecast

View Surf forecast
   
Sun 05/29 12:54pm 9 11 mph 1020.4mb 72f 79f
12:48pm 9 13 mph 1020.4mb 73f 79f
12:42pm 8 13 mph 1020.4mb 72f 79f
12:36pm 8 11 mph 1020.4mb 72f 78f
12:30pm 9 11 mph 1020.4mb 72f 78f
12:24pm 7 11 mph 1020.5mb 72f 79f
12:18pm 10 13 mph 1020.5mb 72f 79f
12:12pm 7 9 mph 1020.5mb 72f 79f
12:06pm 7 10 mph 1020.6mb 71f 80f
12:00pm 6 10 mph 1020.7mb 71f 78f
11:54am 7 10 mph 1020.8mb 71f 78f
11:48am 5 8 mph 1020.8mb 71f 79f
11:42am 7 9 mph 1020.9mb 71f 79f
11:36am 5 10 mph 1021mb 71f 76f
11:30am 9 11 mph 1021mb 71f 74f
11:24am 9 11 mph 1020.9mb 72f 74f
11:18am 9 11 mph 1021mb 71f 73f
11:12am 10 11 mph 1021mb 72f 73f
11:06am 9 13 mph 1020.9mb 72f 73f
11:00am 10 11 mph 1021mb 72f 73f
10:54am 10 13 mph 1021mb 71f 73f
10:48am 9 10 mph 1021mb 71f 72f
10:42am 9 10 mph 1021.1mb 71f 72f
10:36am 8 9 mph 1021.1mb 71f 72f
10:30am 8 9 mph 1021.1mb 71f 72f
10:24am 8 11 mph 1021.2mb 71f 71f
10:18am 8 10 mph 1021.2mb 71f 71f
10:12am 9 11 mph 1021.2mb 71f 71f
10:06am 10 13 mph 1021.3mb 71f 71f
10:00am 10 11 mph 1021.3mb 71f 71f
9:54am 9 10 mph 1021.2mb 71f 70f
9:48am 8 9 mph 1021.3mb 71f 71f
9:42am 8 9 mph 1021.3mb 71f 71f
9:36am 6 7 mph 1021.2mb 70f 72f
9:30am 5 6 mph 1021.3mb 70f 73f
9:24am 3 7 mph 1021.3mb 70f 73f
9:18am 3 7 mph 1021.4mb 70f 73f
9:12am 5 7 mph 1021.4mb 70f 72f
9:06am 3 7 mph 1021.5mb 70f 72f
9:00am 5 6 mph 1021.4mb 70f 72f
8:54am 5 6 mph 1021.4mb 70f 71f
8:48am 5 6 mph 1021.4mb 70f 71f
8:42am 5 6 mph 1021.5mb 70f 72f
8:36am 3 7 mph 1021.5mb 70f 71f
8:30am 3 5 mph 1021.5mb 70f 71f
8:24am 3 5 mph 1021.5mb 70f 71f
8:18am 5
mph
1021.5mb 70f 70f
8:12am 3 6 mph 1021.5mb 70f 71f
8:06am 3 6 mph 1021.4mb 70f 71f
8:00am 5 6 mph 1021.4mb 70f 71f
7:54am 3 6 mph 1021.4mb 70f 71f
7:48am 3 6 mph 1021.4mb 70f 70f
7:42am 5 6 mph 1021.4mb 70f 70f
7:36am 2 6 mph 1021.5mb 70f 70f
7:30am 3 6 mph 1021.5mb 70f 70f
7:24am 3 6 mph 1021.6mb 70f 70f
7:18am 5 6 mph 1021.5mb 70f 69f
7:12am 3 6 mph 1021.5mb 70f 69f
7:06am 5 7 mph 1021.5mb 70f 69f
7:00am 6 7 mph 1021.4mb 70f 69f
6:54am 3 5 mph 1021.4mb 70f 69f
6:48am 3 5 mph 1021.3mb 70f 69f
6:42am 2 3 mph 1021.3mb 70f 69f
6:36am 3 5 mph 1021.4mb 70f 68f
6:30am 2 5 mph 1021.4mb 70f 68f
6:24am 2 3 mph 1021.4mb 70f 68f
6:18am 2 3 mph 1021.3mb 70f 67f
6:12am 2
mph
1021.3mb 70f 66f
6:06am  -  2 mph 1021.2mb 70f 65f
6:00am 2
mph
1021.2mb 70f 65f
5:54am  -  1 mph 1021.1mb 70f 65f
5:48am 1 2 mph 1021.1mb 70f 64f
5:42am 1 2 mph 1021.1mb 70f 64f
5:36am 1 2 mph 1021mb 70f 64f
5:30am  -  1 mph 1020.9mb 70f 64f
5:24am 1 2 mph 1020.9mb 70f 65f
5:18am 1
mph
1020.9mb 70f 65f
5:12am  -  1 mph 1020.8mb 70f 65f
5:06am 1
mph
1020.9mb 70f 65f
5:00am  -  1 mph 1020.8mb 70f 65f
4:54am  -  1 mph 1020.8mb 70f 65f
4:48am  -  2 mph 1020.7mb 70f 65f
4:42am 2
mph
1020.8mb 70f 66f
4:36am  -  1 mph 1020.7mb 70f 66f
4:30am  -  1 mph 1020.7mb 70f 66f
4:24am  -  2 mph 1020.7mb 70f 66f
4:18am  -  2 mph 1020.7mb 70f 66f
4:12am  -  3 mph 1020.8mb 70f 66f
4:06am 2 3 mph 1020.8mb 70f 66f
4:00am 2 3 mph 1020.8mb 70f 66f
3:54am 2 3 mph 1020.7mb 70f 66f
3:48am  -  3 mph 1020.7mb 70f 66f
3:42am 2 3 mph 1020.7mb 70f 67f
3:36am 1 2 mph 1020.6mb 70f 66f
3:30am 1 2 mph 1020.7mb 70f 66f
3:24am 1 2 mph 1020.7mb 70f 66f
3:18am 1 2 mph 1020.8mb 70f 66f
3:12am  -  1 mph 1020.8mb 70f 66f
3:06am  -  1 mph 1020.9mb 70f 66f
3:00am  -  2 mph 1020.8mb 70f 66f
2:54am 1 2 mph 1020.9mb 70f 67f
2:48am 1 2 mph 1020.9mb 70f 66f
2:42am  -  2 mph 1020.9mb 70f 66f
2:36am 1 2 mph 1021mb 70f 66f
2:30am  -  mph 1021.1mb 70f 67f
2:24am  -  mph 1021.1mb 70f 67f
2:18am  -  1 mph 1021mb 70f 67f
2:12am  -  1 mph 1021mb 70f 68f
2:06am  -  1 mph 1021.1mb 70f 69f
2:00am 1
mph
1021.1mb 70f 69f
1:54am 1 2 mph 1021.1mb 70f 69f
1:48am  -  mph 1021.1mb 70f 69f
1:42am  -  mph 1021.2mb 70f 70f
1:36am  -  mph 1021.2mb 70f 70f
1:30am 1 3 mph 1021.3mb 70f 70f
1:24am 1 2 mph 1021.3mb 70f 70f
1:18am 1 3 mph 1021.4mb 71f 70f
1:12am 1 3 mph 1021.4mb 71f 71f
1:06am 1 5 mph 1021.3mb 71f 71f
1:00am 2 3 mph 1021.3mb 71f 71f
12:54am 2 5 mph 1021.2mb 71f 71f
12:48am 2 5 mph 1021.2mb 71f 71f
12:42am 2 6 mph 1021.2mb 71f 71f
12:36am 2 6 mph 1021.2mb 71f 71f
12:30am 2 6 mph 1021.2mb 71f 72f
12:24am 3 6 mph 1021.3mb 71f 72f
12:18am 3 5 mph 1021.2mb 71f 72f
12:12am 2 5 mph 1021.2mb 71f 72f
12:06am 3 5 mph 1021.2mb 71f 72f
12:00am 2 5 mph 1021.1mb 71f 72f
Sat 05/28 11:54pm 1 3 mph 1021.1mb 71f 72f
11:48pm 3 5 mph 1021.1mb 71f 72f
11:42pm  -  2 mph 1021mb 71f 72f
11:36pm  -  2 mph 1021mb 72f 72f
11:30pm  -  1 mph 1021mb 72f 72f
11:24pm  -  1 mph 1021mb 72f 72f
11:18pm  -  mph 1020.9mb 72f 72f
11:12pm  -  mph 1020.9mb 72f 73f
11:06pm  -  mph 1020.9mb 72f 73f
11:00pm  -  mph 1020.9mb 72f 73f
10:54pm  -  mph 1020.9mb 72f 73f
10:48pm 2 5 mph - 72f -
10:42pm 2 5 mph - 71f -
10:36pm 2
mph
- 71f -
10:30pm 1 2 mph 1021mb - -
10:24pm 1 3 mph 1021.1mb - -
10:18pm  -  mph 1021.1mb 71f 72f
10:12pm  -  mph 1021mb 71f 72f
10:06pm  -  mph 1021mb 71f 72f
10:00pm  -  mph 1021mb - -
9:54pm  -  mph 1020.9mb - -
9:48pm  -  mph - 70f 73f
9:42pm  -  mph - 70f 73f
9:36pm  -  mph - 70f 73f
9:30pm 3 5 mph - - -
9:24pm 3 6 mph - - -
9:18pm  -  mph 1020.6mb 70f 74f
9:12pm  -  mph 1020.4mb 71f 74f
9:06pm  -  mph 1020.4mb 70f 74f
9:00pm  -  mph 1020.3mb - -
8:54pm  -  mph 1020.3mb - -
8:48pm  -  mph - 70f -
8:42pm  -  mph - 70f -
8:36pm  -  mph - 70f -
8:30pm 5 7 mph - - -
8:24pm 2 6 mph - - -
8:18pm  -  mph 1020mb 70f -
8:12pm  -  mph 1020mb 70f -
8:06pm  -  mph 1020mb 70f -
8:00pm 3 6 mph - - -
7:54pm 5 8 mph - - -
7:48pm  -  mph 1019.9mb - -
7:42pm  -  mph 1019.9mb - -
7:36pm  -  mph 1019.8mb - -
7:30pm 6 9 mph 1019.8mb - -
7:24pm 6 9 mph 1019.8mb - -
7:18pm  -  mph - 70f 80f
7:12pm  -  mph - 70f 80f
7:06pm  -  mph - 69f 80f
7:00pm 6 9 mph - - -
6:54pm 7 9 mph - - -
6:48pm 7 10 mph - - -
6:42pm 7 8 mph - - -
6:36pm 6 8 mph - - -
6:30pm  -  mph 1019.4mb 69f -
6:24pm  -  mph 1019.4mb 69f -
6:18pm  -  mph 1019.3mb 69f 82f
6:12pm  -  mph 1019.3mb 69f 82f
6:06pm  -  mph 1019.3mb 69f 81f
6:00pm 8 13 mph - - -
5:54pm 11 14 mph - - -
5:48pm  -  mph 1019.2mb 69f 82f
5:42pm  -  mph 1019.2mb 69f 82f
5:36pm  -  mph 1019.2mb 69f 82f
5:30pm 8 15 mph 1019.3mb 69f 82f
5:24pm 11 16 mph 1019.3mb 69f 82f
5:18pm 9 14 mph 1019.4mb 69f 82f
5:12pm 10 15 mph 1019.4mb 69f 82f
5:06pm 9 15 mph 1019.5mb 69f 82f
5:00pm 9 14 mph 1019.5mb 69f 83f
4:54pm 9 15 mph 1019.6mb 69f 83f
4:48pm 7 14 mph 1019.6mb 69f 84f
4:42pm 9 14 mph 1019.6mb 69f 83f
4:36pm 11 16 mph 1019.7mb 69f 83f
4:30pm 10 14 mph 1019.7mb 69f 83f
4:24pm 9 14 mph 1019.7mb 69f 83f
4:18pm 11 15 mph 1019.7mb 69f 83f
4:12pm 10 16 mph 1019.7mb 69f 83f
4:06pm 10 15 mph 1019.9mb 69f 83f
4:00pm 9 15 mph 1019.9mb 69f 83f
3:54pm 8 15 mph 1020mb 69f 84f
3:48pm 10 14 mph 1020mb 69f 84f
3:42pm 11 14 mph 1020mb 69f 84f
3:36pm 9 14 mph 1020.1mb 70f 84f
3:30pm 10 14 mph 1020.1mb 70f 85f
3:24pm 9 13 mph 1020.2mb 70f 84f
3:18pm 9 14 mph 1020.3mb 70f 85f
3:12pm 8 13 mph 1020.3mb 70f 85f
3:06pm 6 11 mph 1020.3mb 70f 86f
3:00pm 9 11 mph 1020.2mb 71f 86f
2:54pm 7 11 mph 1020.3mb 71f 85f
2:48pm 10 13 mph 1020.3mb 71f 85f
2:42pm 8 11 mph 1020.3mb 71f 86f
2:36pm 7 10 mph 1020.4mb 70f 86f
2:30pm 8 11 mph 1020.4mb 70f 85f
2:24pm 8 11 mph 1020.4mb 70f 85f
2:18pm 6 9 mph 1020.4mb 71f 85f
2:12pm 6 10 mph 1020.4mb 71f 85f
2:06pm 7 10 mph 1020.4mb 71f 85f
2:00pm 7 10 mph 1020.5mb 71f 82f
1:54pm 7 9 mph 1020.6mb 71f 83f
1:48pm 6 8 mph 1020.7mb 70f 84f
1:42pm 6 9 mph 1020.8mb 70f 84f
1:36pm 8 11 mph 1020.9mb 70f 83f
1:30pm 9 11 mph 1020.9mb 71f 82f
1:24pm 7 11 mph 1020.9mb 71f 83f
1:18pm 7 10 mph 1021mb 71f 82f
1:12pm 6 11 mph 1021mb 70f 83f
1:06pm 7 9 mph 1021mb 71f 84f
1:00pm 8 11 mph 1021.1mb 70f 83f
12:54pm 7 10 mph 1021.1mb 70f 83f
12:48pm 6 10 mph 1021mb 69f 83f
12:42pm 6 9 mph 1021.1mb 69f 83f
12:36pm 6 10 mph 1021.2mb 69f 83f
12:30pm 8 10 mph 1021.2mb 69f 83f
12:24pm 8 9 mph 1021.2mb 69f 83f
12:18pm 5 9 mph 1021.2mb 69f 83f
12:12pm 8 9 mph 1021.2mb 69f 82f
12:06pm 8 10 mph 1021.3mb 70f 82f
12:00pm 7 10 mph 1021.3mb 70f 82f
11:54am 5 10 mph 1021.3mb 70f 82f
11:48am 8 9 mph 1021.3mb 70f 79f
11:42am 7 11 mph 1021.3mb 70f 81f
11:36am 6 8 mph 1021.4mb 70f 78f
11:30am 3 9 mph 1021.4mb 71f 80f
11:24am 6 10 mph 1021.4mb 71f 81f
11:18am 8 11 mph 1021.3mb 71f 81f
11:12am 3 10 mph 1021.4mb 71f 82f
11:06am 5 8 mph 1021.4mb 71f 80f
11:00am 5 7 mph 1021.4mb 71f 80f
10:54am 5 8 mph 1021.4mb 70f 80f
10:48am 6 9 mph 1021.5mb 71f 80f
10:42am 5 8 mph 1021.5mb 70f 80f
10:36am 6 8 mph 1021.5mb 70f 79f
10:30am 3 9 mph 1021.5mb 70f 79f
10:24am 3 8 mph 1021.5mb 70f 79f
10:18am 6 7 mph 1021.4mb 70f 79f
10:12am 3 7 mph 1021.4mb 70f 78f
10:06am 5 8 mph 1021.4mb 70f 77f
10:00am 5 10 mph 1021.4mb 70f 78f
9:54am 6 9 mph 1021.4mb 70f 78f
9:48am 3 6 mph 1021.4mb 70f 77f
9:42am 5 8 mph 1021.4mb 70f 77f
9:36am 6 8 mph 1021.3mb 70f 76f
9:30am 6 8 mph 1021.3mb 70f 77f
9:24am 6 8 mph 1021.3mb 70f 76f
9:18am 5 8 mph 1021.4mb 69f 76f
9:12am 2 7 mph 1021.4mb 69f 76f
9:06am 5 8 mph 1021.4mb 69f 76f
9:00am 1 7 mph 1021.4mb 69f 76f
8:54am 3 8 mph 1021.4mb 69f 75f
8:48am 3 7 mph 1021.3mb 69f 75f
8:42am 5 7 mph 1021.3mb 68f 75f
8:36am 6 10 mph 1021.2mb 68f 74f
8:30am 6 8 mph 1021.1mb 69f 74f
8:24am 3 6 mph 1021mb 68f 74f
8:18am 2 6 mph 1021mb 68f 74f
8:12am 3 6 mph 1021mb 68f 73f
8:06am 3 7 mph 1020.9mb 68f 74f
8:00am 3 5 mph 1020.8mb 68f 73f
7:54am 5 7 mph 1020.8mb 68f 73f
7:48am 3 7 mph 1020.8mb 68f 73f
7:42am 3 6 mph 1020.8mb 68f 73f
7:36am 3 6 mph 1020.9mb 68f 73f
7:30am 5 6 mph 1020.8mb 68f 73f
7:24am 3 6 mph 1020.8mb 68f 72f
7:18am 2 3 mph 1020.8mb 68f 72f
7:12am 1 3 mph 1020.7mb 68f 72f
7:06am 2 6 mph 1020.7mb 68f 72f
7:00am 2 6 mph 1020.7mb 68f 71f
6:54am 3 6 mph 1020.7mb 68f 71f
6:48am 2 3 mph 1020.7mb 68f 71f
6:42am 2 5 mph 1020.7mb 68f 70f
6:36am 2 5 mph 1020.7mb 68f 69f
6:30am 2 3 mph 1020.6mb 68f 69f
6:24am 2 3 mph 1020.6mb 68f 68f
6:18am 2 3 mph 1020.6mb 68f 69f
6:12am 1 2 mph 1020.5mb 68f 69f
6:06am 2 3 mph 1020.3mb 68f 68f
6:00am 2
mph
1020.3mb 68f 68f
5:54am 2 3 mph 1020.3mb 68f 68f
5:48am 1 2 mph 1020.3mb 68f 67f
5:42am 2
mph
1020.2mb 68f 68f
5:36am  -  2 mph 1020.2mb 68f 68f
5:30am 1 2 mph 1020.2mb 68f 68f
5:24am 1
mph
1020.1mb 68f 67f
5:18am 1
mph
1020.1mb 68f 68f
5:12am  -  mph 1020mb 68f 68f
5:06am  -  1 mph 1020mb 67f 68f
5:00am  -  2 mph 1019.9mb 67f 68f
4:54am 1 2 mph 1019.9mb 67f 68f
4:48am 1 2 mph 1019.8mb 67f 68f
4:42am  -  mph 1019.7mb 67f 69f
4:36am 1 2 mph 1019.7mb 67f 69f
4:30am 2 3 mph 1019.6mb 67f 68f
4:24am 3
mph
1019.6mb 67f 68f
4:18am  -  1 mph 1019.6mb 68f 67f
4:12am 2 3 mph 1019.6mb 68f 68f
4:06am 2 3 mph 1019.5mb 68f 67f
4:00am 3
mph
1019.6mb 68f 67f
3:54am 2 3 mph 1019.6mb 68f 68f
3:48am  -  2 mph 1019.6mb 68f 67f
3:42am  -  1 mph 1019.6mb 68f 67f
3:36am  -  1 mph 1019.6mb 68f 68f
3:30am  -  mph 1019.5mb 68f 68f
3:24am  -  mph 1019.5mb 68f 68f
3:18am  -  1 mph 1019.4mb 68f 68f
3:12am  -  1 mph 1019.3mb 68f 69f
3:06am  -  1 mph 1019.3mb 68f 69f
3:00am  -  1 mph 1019.2mb 68f 69f
2:54am  -  1 mph 1019.2mb 68f 69f
2:48am 2
mph
1019.2mb 68f 69f
2:42am 2
mph
1019.2mb 68f 70f
2:36am 1 3 mph 1019.2mb 69f 70f
2:30am 2 3 mph 1019.1mb 69f 70f
2:24am 1 2 mph 1019.2mb 69f 71f
2:18am  -  mph 1019.2mb 69f 71f
2:12am  -  mph 1019.3mb 69f 71f
2:06am  -  mph 1019.3mb 69f 71f
2:00am  -  mph 1019.3mb 69f 71f
1:54am  -  mph 1019.4mb 69f 71f
1:48am  -  1 mph 1019.3mb 69f 71f
1:42am  -  2 mph 1019.3mb 69f 72f
1:36am 1 2 mph 1019.3mb 69f 72f
1:30am 1 3 mph 1019.3mb 69f 72f
1:24am 3 5 mph 1019.3mb 69f 73f
1:18am 3 6 mph 1019.3mb 69f 73f
1:12am 5 6 mph 1019.3mb 69f 73f
1:06am 3 6 mph 1019.4mb 69f 73f
1:00am 5 8 mph 1019.3mb 69f 73f
12:54am 5 8 mph 1019.3mb 69f 73f
12:48am 5 8 mph 1019.3mb 69f 73f
12:42am 1 3 mph 1019.4mb 69f 73f
12:36am 2 3 mph 1019.3mb 69f 73f
12:30am 2 5 mph 1019.3mb 69f 73f
12:24am 2 5 mph 1019.3mb 69f 74f
12:18am 2 5 mph 1019.4mb 69f 74f
12:12am 2 5 mph 1019.4mb 70f 74f
12:06am 1 2 mph 1019.3mb 70f 74f
12:00am 1 3 mph 1019.3mb 70f 74f
Fri 05/27 11:54pm 1 5 mph 1019.3mb 70f 74f
11:48pm  -  mph 1019.3mb 70f 75f
11:42pm  -  mph 1019.3mb 70f 75f
11:36pm  -  mph 1019.3mb 70f 76f
11:30pm 3 10 mph 1019.2mb 70f 76f
11:24pm 3 9 mph 1019.1mb 70f 76f
11:18pm  -  mph 1019.1mb 70f -
11:12pm  -  mph 1018.9mb 70f -
11:06pm  -  mph 1018.9mb 70f -
11:00pm 2 7 mph 1018.9mb 70f -
10:54pm 5 9 mph 1018.8mb 70f -
10:48pm  -  mph - 71f -
10:42pm  -  mph - 71f -
10:36pm  -  mph - 71f -
10:30pm  -  mph 1018.9mb - -
10:24pm  -  mph 1019mb - -
10:18pm  -  mph 1019mb - 78f
10:12pm  -  mph 1019mb - 78f
10:06pm  -  mph 1018.9mb - 78f
10:00pm 3 8 mph 1018.9mb - -
9:54pm 6 11 mph 1018.8mb - -
9:48pm  -  mph 1018.7mb 71f -
9:42pm  -  mph 1018.5mb 71f -
9:36pm  -  mph 1018.5mb 71f -
9:30pm 5 9 mph 1018.4mb 71f -
9:24pm 2 7 mph 1018.4mb 71f -
9:18pm  -  mph 1018.3mb 71f -
9:12pm  -  mph 1018.1mb 71f -
9:06pm  -  mph 1018mb 71f -
9:00pm 3 9 mph 1017.9mb - -
8:54pm 5 9 mph 1017.8mb - -
8:48pm  -  mph 1017.8mb 70f -
8:42pm  -  mph 1017.7mb 70f -
8:36pm  -  mph 1017.6mb 70f -
8:30pm 6 10 mph 1017.5mb 70f -
8:24pm 5 9 mph 1017.5mb 70f -
8:18pm  -  mph - 70f 82f
8:12pm  -  mph - 70f 82f
8:06pm  -  mph - 70f 82f
8:00pm  -  mph 1017.3mb 70f -
7:54pm  -  mph 1017.3mb 69f -
7:48pm  -  mph 1017.2mb 69f -
7:42pm  -  mph 1017.1mb 69f -
7:36pm  -  mph 1017.1mb 69f -
7:30pm 3 10 mph 1017mb 69f -
7:24pm 5 8 mph 1017mb 69f -
7:18pm  -  mph 1016.9mb 69f 85f
7:12pm  -  mph 1016.8mb 69f 85f
7:06pm  -  mph 1016.8mb 69f 83f
7:00pm 3 7 mph 1016.8mb - -
6:54pm 3 6 mph 1016.8mb - -
6:48pm 5 6 mph 1016.7mb - -
6:42pm 1 6 mph 1016.6mb - -
6:36pm 2 7 mph 1016.5mb - -
6:30pm 2 8 mph 1016.5mb 68f -
6:24pm 3 6 mph 1016.5mb 68f -
6:18pm  -  mph 1016.6mb 68f -
6:12pm  -  mph 1016.7mb 68f -
6:06pm  -  mph 1016.7mb 68f -
6:00pm  -  mph 1016.7mb - -
5:54pm  -  mph 1016.8mb - -
5:48pm  -  mph 1016.8mb 68f -
5:42pm  -  mph 1016.8mb 68f -
5:36pm  -  mph 1016.9mb 68f -
5:30pm 6 7 mph 1017mb 68f 82f
5:24pm 7 9 mph 1017.1mb 68f 83f
5:18pm 5 7 mph 1017.1mb 68f 84f
5:12pm 6 10 mph 1017mb 68f 83f
5:06pm 6 9 mph 1017mb 68f 84f
5:00pm 6 11 mph 1016.9mb 68f 84f
4:54pm 7 10 mph 1017mb 68f 84f
4:48pm 6 9 mph 1017mb 68f 84f
4:42pm 7 11 mph 1017.1mb 68f 84f
4:36pm 8 10 mph 1017.1mb 68f 83f
4:30pm 7 11 mph 1017.1mb 68f 83f
4:24pm 10 13 mph 1017.1mb 68f 83f
4:18pm 8 11 mph 1017.1mb 68f 83f
4:12pm 7 10 mph 1017.2mb 68f 84f
4:06pm 6 9 mph 1017.2mb 68f 85f
4:00pm 8 10 mph 1017.2mb 68f 87f
3:54pm 7 9 mph 1017.3mb 68f 87f
3:48pm 6 9 mph 1017.3mb 68f 87f
3:42pm 6 10 mph 1017.3mb 68f 87f
3:36pm 6 9 mph 1017.3mb 68f 87f
3:30pm 6 10 mph 1017.3mb 68f 87f
3:24pm 7 14 mph 1017.2mb 68f 87f
3:18pm 7 11 mph 1017.2mb 68f 87f
3:12pm 6 11 mph 1017.3mb 68f 87f
3:06pm 6 9 mph 1017.4mb 68f 87f
3:00pm 6 10 mph 1017.4mb 68f 87f
2:54pm 3 9 mph 1017.4mb 68f 87f
2:48pm 8 10 mph 1017.4mb 68f 87f
2:42pm 6 10 mph 1017.5mb 68f 87f
2:36pm 6 10 mph 1017.5mb 68f 87f
2:30pm 5 10 mph 1017.5mb 68f 87f
2:24pm 6 8 mph 1017.6mb 68f 87f
2:18pm 6 9 mph 1017.7mb 68f 87f
2:12pm 6 9 mph 1017.7mb 69f 86f
2:06pm 6 13 mph 1017.7mb 69f 86f
2:00pm 6 10 mph 1017.7mb 69f 86f
1:54pm 9 10 mph 1017.7mb 69f 86f
1:48pm 7 10 mph 1017.8mb 69f 86f
1:42pm 6 11 mph 1017.9mb 69f 86f
1:36pm 6 7 mph 1017.9mb 69f 86f
1:30pm 3 9 mph 1017.8mb 69f 86f
1:24pm 6 11 mph 1017.9mb 68f 85f
1:18pm 6 10 mph 1017.9mb 69f 85f
1:12pm 6 10 mph 1018mb 69f 85f
1:06pm 5 9 mph 1018mb 69f 85f
1:00pm 7 10 mph 1018.1mb 69f 85f
12:54pm 5 9 mph 1018mb 69f 84f
12:48pm 6 9 mph 1018mb 68f 85f
12:42pm 6 9 mph 1018.1mb 68f 85f
12:36pm 6 9 mph 1018.1mb 68f 85f
12:30pm 5 8 mph 1018.2mb 68f 85f
12:24pm 5 8 mph 1018.1mb 69f 84f
12:18pm 2 7 mph 1018.1mb 69f 84f
12:12pm 3 10 mph 1018.1mb 69f 84f
12:06pm 6 9 mph 1018.1mb 69f 83f
12:00pm 5 10 mph 1018.2mb 69f 83f
11:54am 3 8 mph 1018.2mb 69f 83f
11:48am 6 10 mph 1018.2mb 69f 82f
11:42am 5 9 mph 1018.4mb 69f 82f
11:36am 3 13 mph 1018.4mb 69f 83f
11:30am 7 13 mph 1018.4mb 68f 82f
11:24am 3 7 mph 1018.4mb 68f 82f
11:18am 5 9 mph 1018.3mb 68f 82f
11:12am 6 8 mph 1018.3mb 69f 81f
11:06am 1 6 mph 1018.3mb 69f 82f
11:00am 6 10 mph 1018.3mb 69f 81f
10:54am 6 11 mph 1018.3mb 69f 81f
10:48am 5 8 mph 1018.3mb 69f 80f
10:42am 6 10 mph 1018.2mb 69f 80f
10:36am 6 8 mph 1018.2mb 68f 80f
10:30am 3 6 mph 1018.2mb 68f 80f
10:24am 3 10 mph 1018.3mb 68f 80f
10:18am 7 10 mph 1018.2mb 68f 80f
10:12am 5 8 mph 1018.2mb 68f 80f
10:06am 3 8 mph 1018.2mb 68f 79f
10:00am 3 7 mph 1018.2mb 68f 79f
9:54am 3 8 mph 1018.2mb 68f 79f
9:48am 3 9 mph 1018.2mb 68f 78f
9:42am 7 9 mph 1018.2mb 68f 78f
9:36am 6 9 mph 1018.3mb 68f 78f
9:30am 5 8 mph 1018.4mb 68f 78f
9:24am 5 8 mph 1018.4mb 68f 78f
9:18am 7 9 mph 1018.3mb 68f 77f
9:12am 5 7 mph 1018.3mb 68f 77f
9:06am 3 8 mph 1018.3mb 68f 77f
9:00am 3 7 mph 1018.3mb 68f 77f
8:54am 3 7 mph 1018.4mb 67f 76f
8:48am 5 9 mph 1018.4mb 67f 76f
8:42am 5 9 mph 1018.4mb 67f 76f
8:36am 6 8 mph 1018.4mb 67f 76f
8:30am 3 7 mph 1018.3mb 67f 76f
8:24am 3 7 mph 1018.4mb 67f 75f
8:18am 1 6 mph 1018.3mb 67f 75f
8:12am 3 10 mph 1018.3mb 67f 74f
8:06am 3 9 mph 1018.5mb 67f 74f
8:00am 5 10 mph 1018.5mb 67f 74f
7:54am 3 8 mph 1018.6mb 67f 74f
7:48am 5 7 mph 1018.7mb 67f 73f
7:42am 2 5 mph 1018.7mb 67f 73f
7:36am 2 5 mph 1018.6mb 67f 73f
7:30am  -  2 mph 1018.6mb 67f 72f
7:24am 1 2 mph 1018.6mb 67f 72f
7:18am  -  2 mph 1018.5mb 67f 72f
7:12am 1 2 mph 1018.4mb 67f 71f
7:06am 2
mph
1018.4mb 67f 70f
7:00am  -  1 mph 1018.3mb 67f 70f
6:54am  -  1 mph 1018.2mb 67f 70f
6:48am  -  mph 1018.2mb 67f 70f
6:42am  -  mph 1018.1mb 67f 70f
6:36am  -  1 mph 1018mb 67f 69f
6:30am  -  mph 1017.9mb 67f 70f
6:24am  -  mph 1017.8mb 67f 71f
6:18am  -  mph 1017.7mb 67f 70f
6:12am  -  1 mph 1017.8mb 67f 69f
6:06am  -  1 mph 1017.8mb 67f 68f
6:00am  -  2 mph 1017.8mb 67f 68f
5:54am 2 3 mph 1017.7mb 67f 67f
5:48am 2 3 mph 1017.8mb 67f 67f
5:42am 2 3 mph 1017.8mb 67f 66f
5:36am 3 6 mph 1017.8mb 67f 66f
5:30am 5
mph
1017.7mb 67f 66f
5:24am 2 3 mph 1017.8mb 67f 66f
5:18am 3
mph
1017.9mb 67f 66f
5:12am 2
mph
1018mb 67f 66f
5:06am 2 3 mph 1017.9mb 67f 67f
5:00am 2 3 mph 1017.9mb 66f 67f
4:54am 2 5 mph 1017.8mb 66f 67f
4:48am 3 5 mph 1017.8mb 66f 67f
4:42am 3 5 mph 1018mb 66f 67f
4:36am 3
mph
1018.1mb 66f 67f
4:30am 2 3 mph 1018.1mb 67f 67f
4:24am 3
mph
1018.1mb 67f 67f
4:18am 2
mph
1018.1mb 67f 66f
4:12am 2
mph
1018.1mb 67f 67f
4:06am 1 2 mph 1018mb 67f 67f
4:00am  -  1 mph 1018mb 67f 67f
3:54am 1 2 mph 1017.9mb 67f 67f
3:48am 2 3 mph 1017.8mb 67f 67f
3:42am  -  2 mph 1017.8mb 67f 67f
3:36am 1 2 mph 1017.8mb 67f 68f
3:30am 2 3 mph 1017.7mb 67f 68f
3:24am 2
mph
1017.7mb 67f 68f
3:18am 2 3 mph 1017.7mb 67f 68f
3:12am 2 3 mph 1017.8mb 67f 67f
3:06am 1 2 mph 1017.8mb 67f 67f
3:00am  -  2 mph 1017.8mb 67f 67f
2:54am 2 3 mph 1017.8mb 67f 67f
2:48am 2 3 mph 1017.8mb 67f 67f
2:42am 3
mph
1017.7mb 67f 67f
2:36am 1 2 mph 1017.7mb 67f 68f
2:30am 1 3 mph 1017.6mb 67f 68f
2:24am 2 3 mph 1017.6mb 67f 68f
2:18am 3 5 mph 1017.8mb 67f 68f
2:12am 5
mph
1017.8mb 67f 68f
2:06am 3 5 mph 1017.8mb 67f 68f
2:00am  -  mph 1017.8mb 67f 67f
1:54am  -  mph 1017.7mb 67f 67f
1:48am  -  mph 1017.7mb 67f 67f
1:42am  -  mph 1017.7mb 67f 67f
1:36am  -  mph 1017.7mb 67f 67f
1:30am  -  1 mph 1017.7mb 67f 67f
1:24am  -  2 mph 1017.7mb 67f 67f
1:18am 1 2 mph 1017.7mb 67f 67f
1:12am 1 2 mph 1017.7mb 67f 68f
1:06am 1
mph
1017.7mb 67f 68f
1:00am 1
mph
1017.6mb 67f 68f
12:54am  -  3 mph 1017.5mb 67f 69f
12:48am 2 5 mph 1017.4mb 67f 69f
12:42am 5 6 mph 1017.5mb 67f 69f
12:36am 5 6 mph 1017.5mb 67f 69f
12:30am 5
mph
1017.5mb 67f 69f
12:24am 3 5 mph 1017.4mb 67f 69f
12:18am 2
mph
1017.5mb 67f 69f
12:12am 1 2 mph 1017.6mb 67f 70f
12:06am 2 5 mph 1017.5mb 67f 70f
12:00am 3 6 mph 1017.5mb 67f 70f
Thu 05/26 11:54pm 6 7 mph 1017.5mb 67f 70f
11:48pm  -  mph 1017.5mb 67f 70f
11:42pm  -  mph 1017.5mb 67f 70f
11:36pm  -  mph 1017.7mb 67f 70f
11:30pm 3 6 mph 1017.7mb 67f 70f
11:24pm 6 8 mph 1017.7mb 67f 70f
11:18pm  -  mph 1017.7mb 67f -
11:12pm  -  mph 1017.7mb 68f -
11:06pm  -  mph 1017.7mb 67f -
11:00pm  -  mph 1017.7mb 68f -
10:54pm  -  mph 1017.8mb 68f -
10:48pm 6 9 mph 1017.7mb - -
10:42pm 5 8 mph 1017.8mb - -
10:36pm 6 7 mph 1017.7mb - -
10:30pm 5 8 mph - - -
10:24pm 5 7 mph - - -
10:18pm  -  mph 1017.6mb 69f 71f
10:12pm  -  mph 1017.5mb 69f 71f
10:06pm  -  mph 1017.6mb 69f 71f
10:00pm  -  mph 1017.6mb - -
9:54pm  -  mph 1017.6mb - -
9:48pm  -  mph 1017.6mb - -
9:42pm  -  mph 1017.6mb - -
9:36pm  -  mph 1017.5mb - -
9:30pm 7 10 mph 1017.4mb - -
9:24pm 8 10 mph 1017.4mb - -
9:18pm  -  mph 1017.3mb 70f -
9:12pm  -  mph 1017.2mb 70f -
9:06pm  -  mph 1017.1mb 70f -
9:00pm  -  mph 1017.1mb - -
8:54pm  -  mph 1017.1mb - -
8:48pm  -  mph 1017.2mb - -
8:42pm  -  mph 1017.1mb - -
8:36pm  -  mph 1017.2mb - -
8:30pm 8 11 mph 1017.2mb 69f -
8:24pm 6 8 mph 1017.2mb 69f -
8:18pm  -  mph - 69f 75f
8:12pm  -  mph - 69f 75f
8:06pm  -  mph - 68f 75f
8:00pm  -  mph 1016.9mb - -
7:54pm  -  mph 1016.9mb - -
7:48pm  -  mph - 68f -
7:42pm  -  mph - 69f -
7:36pm  -  mph - 69f -
7:30pm 7 10 mph 1016.9mb 69f -
7:24pm 7 11 mph 1017mb 69f -
7:18pm  -  mph - 69f 79f
7:12pm  -  mph - 69f 80f
7:06pm  -  mph - 69f 80f
7:00pm 7 10 mph 1016.8mb - -
6:54pm 8 13 mph 1016.8mb - -
6:48pm 7 13 mph 1016.7mb - -
6:42pm 8 14 mph 1016.7mb - -
6:36pm 11 14 mph 1016.7mb - -
6:30pm 7 11 mph 1016.8mb 68f -
6:24pm 8 14 mph 1016.8mb 68f -
6:18pm  -  mph 1016.8mb 67f 81f
6:12pm  -  mph 1016.9mb 67f 81f
6:06pm  -  mph 1017mb 67f 82f
6:00pm 8 13 mph 1017mb 67f -
5:54pm 10 14 mph 1017.1mb 67f -
5:48pm  -  mph - 67f 82f
5:42pm  -  mph - 67f 82f
5:36pm  -  mph - 67f 82f
5:30pm 10 14 mph 1017.1mb 67f 82f
5:24pm 9 15 mph 1017.2mb 67f 82f
5:18pm 9 16 mph 1017.3mb 67f 82f
5:12pm 11 16 mph 1017.3mb 67f 82f
5:06pm 10 14 mph 1017.3mb 67f 82f
5:00pm 9 16 mph 1017.4mb 67f 82f
4:54pm 11 16 mph 1017.4mb 67f 82f
4:48pm 9 16 mph 1017.4mb 67f 82f
4:42pm 9 16 mph 1017.5mb 67f 82f
4:36pm 9 14 mph 1017.5mb 67f 83f
4:30pm 8 17 mph 1017.6mb 67f 83f
4:24pm 10 15 mph 1017.6mb 67f 83f
4:18pm 9 14 mph 1017.6mb 67f 83f
4:12pm 8 13 mph 1017.7mb 67f 84f
4:06pm 9 14 mph 1017.7mb 67f 84f
4:00pm 7 13 mph 1017.6mb 67f 85f
3:54pm 7 10 mph 1017.8mb 67f 85f
3:48pm 7 13 mph 1017.7mb 67f 84f
3:42pm 7 13 mph 1017.7mb 67f 85f
3:36pm 8 13 mph 1017.7mb 67f 85f
3:30pm 9 14 mph 1017.8mb 67f 85f
3:24pm 7 11 mph 1017.8mb 67f 85f
3:18pm 9 14 mph 1017.8mb 67f 85f
3:12pm 9 11 mph 1017.8mb 67f 85f
3:06pm 6 9 mph 1017.9mb 67f 85f
3:00pm 8 13 mph 1018mb 66f 84f
2:54pm 7 11 mph 1018mb 67f 85f
2:48pm 8 10 mph 1018mb 67f 84f
2:42pm 6 13 mph 1018mb 67f 85f
2:36pm 7 9 mph 1018mb 67f 82f
2:30pm 6 9 mph 1018mb 67f 83f
2:24pm 6 8 mph 1018.1mb 67f 84f
2:18pm 5 8 mph 1018.1mb 67f 85f
2:12pm 6 10 mph 1018.1mb 67f 83f
2:06pm 7 9 mph 1018.2mb 67f 80f
2:00pm 6 7 mph 1018.1mb 67f 82f
1:54pm 7 9 mph 1018.2mb 67f 78f
1:48pm  -  mph 1018.3mb 67f 80f
1:42pm  -  mph 1018.4mb 67f 80f
1:36pm  -  mph 1018.4mb 67f 76f
1:30pm 9 10 mph 1018.5mb 67f 80f
1:24pm 7 11 mph 1018.6mb 67f 80f
1:18pm 6 8 mph 1018.7mb 67f 79f
1:12pm 6 7 mph 1018.7mb 67f 80f
1:06pm 7 9 mph 1018.8mb 67f 79f
1:00pm 5 7 mph 1018.9mb 67f 84f
12:54pm 6 8 mph 1019mb 67f 83f
12:48pm 5 8 mph 1019mb 67f 83f
12:42pm 5 10 mph 1018.9mb 67f 83f
12:36pm 7 10 mph 1019mb 67f 80f
12:30pm 7 9 mph 1019mb 67f 80f
12:24pm 7 8 mph 1019.1mb 67f 79f
12:18pm 5 8 mph 1019.1mb 67f 81f
12:12pm 3 10 mph 1019.1mb 67f 77f
12:06pm 8 10 mph 1019.2mb 67f 77f
12:00pm 8 11 mph 1019.2mb 67f 76f
11:54am 9 11 mph 1019.2mb 67f 76f
11:48am 8 10 mph 1019.3mb 67f 74f
11:42am 9 10 mph 1019.3mb 67f 73f
11:36am 8 9 mph 1019.3mb 66f 73f
11:30am 7 9 mph 1019.3mb 66f 72f
11:24am 8
mph
1019.3mb 66f 72f
11:18am 8
mph
1019.3mb 67f 72f
11:12am 8
mph
1019.3mb 67f 72f
11:06am 7 8 mph 1019.4mb 67f 71f
11:00am 7 8 mph 1019.5mb 67f 70f
10:54am 6 8 mph 1019.6mb 67f 70f
10:48am 8
mph
1019.6mb 67f 71f
10:42am 7
mph
1019.7mb 67f 70f
10:36am 6 8 mph 1019.8mb 67f 70f
10:30am 7 8 mph 1019.8mb 67f 70f
10:24am 7 8 mph 1019.9mb 67f 70f
10:18am 7 8 mph 1019.9mb 67f 69f
10:12am 7
mph
1019.9mb 67f 68f
10:06am 7 8 mph 1020mb 67f 69f
10:00am 6 7 mph 1020.1mb 67f 67f
9:54am 5 6 mph 1020.1mb 67f 67f
9:48am 6
mph
1020.2mb 67f 67f
9:42am 6 7 mph 1020.2mb 67f 67f
9:36am 3 5 mph 1020.3mb 67f 67f
9:30am 3 5 mph 1020.3mb 67f 67f
9:24am 3 5 mph 1020.4mb 67f 67f
9:18am 3 5 mph 1020.4mb 67f 67f
9:12am 3 5 mph 1020.5mb 67f 67f
9:06am 5 6 mph 1020.5mb 67f 67f
9:00am 3 5 mph 1020.5mb 67f 68f
8:54am 2 3 mph 1020.6mb 67f 69f
8:48am 1 3 mph 1020.6mb 67f 69f
8:42am 1 2 mph 1020.6mb 67f 69f
8:36am  -  3 mph 1020.6mb 67f 67f
8:30am 2 3 mph 1020.7mb 66f 67f
8:24am 3 5 mph 1020.7mb 66f 66f
8:18am 3 5 mph 1020.6mb 66f 66f
8:12am 3 5 mph 1020.6mb 66f 66f
8:06am 3 5 mph 1020.6mb 66f 66f
8:00am 3
mph
1020.6mb 66f 66f
7:54am 3
mph
1020.6mb 66f 66f
7:48am 3
mph
1020.5mb 66f 66f
7:42am 2
mph
1020.5mb 66f 66f
7:36am 1 2 mph 1020.6mb 66f 67f
7:30am  -  2 mph 1020.5mb 66f 68f
7:24am 1 3 mph 1020.5mb 65f 69f
7:18am 3
mph
1020.4mb 65f 69f
7:12am 2 3 mph 1020.4mb 65f 68f
7:06am 1 2 mph 1020.4mb 65f 69f
7:00am  -  mph 1020.3mb 65f 70f
6:54am  -  2 mph 1020.3mb 65f 68f
6:48am 1 3 mph 1020.2mb 65f 66f
6:42am 2 3 mph 1020.2mb 65f 65f
6:36am 2 3 mph 1020.2mb 65f 64f
6:30am 2
mph
1020.2mb 65f 62f
6:24am 2
mph
1020.1mb 65f 61f
6:18am 1 2 mph 1020.1mb 65f 61f
6:12am 1 2 mph 1020.1mb 65f 61f
6:06am  -  1 mph 1020.1mb 65f 61f
6:00am  -  1 mph 1020.1mb 65f 61f
5:54am  -  1 mph 1020mb 65f 61f
5:48am  -  1 mph 1019.9mb 65f 61f
5:42am  -  1 mph 1019.8mb 65f 60f
5:36am  -  1 mph 1019.8mb 65f 61f
5:30am  -  2 mph 1019.7mb 65f 61f
5:24am 1 2 mph 1019.7mb 65f 61f
5:18am  -  mph 1019.7mb 65f 61f
5:12am  -  mph 1019.8mb 65f 61f
5:06am  -  mph 1019.7mb 65f 61f
5:00am  -  1 mph 1019.7mb 65f 61f
4:54am  -  1 mph 1019.6mb 65f 61f
4:48am  -  1 mph 1019.6mb 65f 62f
4:42am  -  1 mph 1019.6mb 65f 62f
4:36am  -  1 mph 1019.5mb 65f 61f
4:30am  -  1 mph 1019.5mb 65f 61f
4:24am  -  mph 1019.5mb 65f 61f
4:18am  -  1 mph 1019.5mb 65f 61f
4:12am  -  mph 1019.4mb 65f 62f
4:06am  -  mph 1019.4mb 65f 62f
4:00am  -  1 mph 1019.4mb 65f 62f
3:54am  -  mph 1019.4mb 65f 62f
3:48am  -  mph 1019.4mb 65f 62f
3:42am  -  mph 1019.4mb 65f 63f
3:36am  -  1 mph 1019.3mb 65f 63f
3:30am 2
mph
1019.3mb 65f 63f
3:24am 2
mph
1019.3mb 65f 63f
3:18am 2 3 mph 1019.3mb 65f 64f
3:12am 2
mph
1019.4mb 65f 64f
3:06am 2
mph
1019.4mb 65f 64f
3:00am 2
mph
1019.4mb 65f 64f
2:54am 2
mph
1019.5mb 65f 63f
2:48am 2
mph
1019.4mb 65f 64f
2:42am 2 3 mph 1019.5mb 65f 64f
2:36am 2 3 mph 1019.5mb 65f 65f
2:30am 1 2 mph 1019.5mb 65f 65f
2:24am 2
mph
1019.4mb 65f 65f
2:18am 2 3 mph 1019.4mb 65f 65f
2:12am 2 3 mph 1019.4mb 65f 65f
2:06am 2
mph
1019.4mb 65f 65f
2:00am 1
mph
1019.4mb 65f 65f
1:54am 1
mph
1019.3mb 65f 65f
1:48am  -  1 mph 1019.3mb 65f 65f
1:42am  -  1 mph 1019.3mb 65f 65f
1:36am  -  2 mph 1019.2mb 65f 66f
1:30am 1 2 mph 1019.2mb 65f 66f
1:24am 1 2 mph 1019.2mb 65f 66f
1:18am 2 3 mph 1019.2mb 65f 67f
1:12am 1 2 mph 1019.3mb 65f 67f
1:06am  -  3 mph 1019.3mb 66f 68f
1:00am 2 3 mph 1019.3mb 66f 68f
12:54am 1 3 mph 1019.3mb 66f 68f
12:48am 3 5 mph 1019.4mb 66f 69f
12:42am 2 6 mph 1019.4mb 66f 69f
12:36am 3 6 mph 1019.3mb 66f 69f
12:30am 3 7 mph 1019.3mb 66f 70f
12:24am 3 7 mph 1019.3mb 66f 70f
12:18am 3 6 mph 1019.3mb 66f 70f
12:12am 5 7 mph 1019.3mb 66f 70f
12:06am 5 7 mph 1019.4mb 66f 71f
12:00am 5 7 mph 1019.4mb 66f 71f
Wed 05/25 11:54pm 3 6 mph 1019.4mb 66f 71f
11:48pm  -  mph 1019.4mb 66f 71f
11:42pm  -  mph 1019.4mb 66f 71f
11:36pm  -  mph 1019.4mb 66f 71f
11:30pm 5 7 mph 1019.3mb 66f 71f
11:24pm 5 6 mph 1019.3mb 66f 72f
11:18pm  -  mph 1019.2mb 66f 72f
11:12pm  -  mph 1019.2mb 66f 72f
11:06pm  -  mph 1019.2mb 66f 72f
11:00pm  -  mph - 66f 72f
10:54pm  -  mph - 66f 72f
10:48pm  -  mph 1019.4mb - -
10:42pm  -  mph 1019.4mb - -
10:36pm  -  mph 1019.4mb - -
10:30pm 3 6 mph 1019.5mb 66f -
10:24pm 3 6 mph 1019.5mb 66f -
10:18pm  -  mph 1019.5mb 66f 73f
10:12pm  -  mph 1019.5mb 67f 73f
10:06pm  -  mph 1019.5mb 67f 73f
10:00pm 3 6 mph 1019.5mb 67f -
9:54pm 5 6 mph 1019.5mb 67f -
9:48pm  -  mph 1019.5mb 67f -
9:42pm  -  mph 1019.5mb 67f -
9:36pm  -  mph 1019.5mb 67f -
9:30pm 3 6 mph 1019.5mb 67f -
9:24pm 3 6 mph 1019.4mb 67f -
9:18pm 3 6 mph 1019.4mb 67f -
9:12pm 5 6 mph 1019.4mb 67f -
9:06pm 3 6 mph 1019.4mb 67f -
9:00pm  -  mph 1019.3mb 67f -
8:54pm  -  mph 1019.2mb 67f -
8:48pm  -  mph 1019.1mb 68f -
8:42pm  -  mph 1019mb 68f -
8:36pm  -  mph 1019mb 68f -
8:30pm 3 5 mph 1018.9mb 68f -
8:24pm 2 3 mph 1018.9mb 68f -
8:18pm  -  mph 1018.8mb 68f 77f
8:12pm  -  mph 1018.8mb 68f 78f
8:06pm  -  mph 1018.8mb 68f 78f
8:00pm 2 5 mph 1018.8mb 68f -
7:54pm 3 7 mph 1018.7mb 68f -
7:48pm 3 6 mph - 67f -
7:42pm 3 7 mph - 67f -
7:36pm 5 7 mph - 67f -
7:30pm 2 6 mph 1018.5mb 67f -
7:24pm 3 6 mph 1018.5mb 67f -
7:18pm  -  mph 1018.5mb 68f 81f
7:12pm  -  mph 1018.6mb 67f 81f
7:06pm  -  mph 1018.6mb 68f 82f
7:00pm  -  mph 1018.6mb 67f -
6:54pm  -  mph 1018.6mb 67f -
6:48pm 5 7 mph 1018.5mb - -
6:42pm 5 8 mph 1018.5mb - -
6:36pm 5 7 mph 1018.5mb - -
6:30pm 3 11 mph 1018.5mb - -
6:24pm 6 10 mph 1018.6mb - -
6:18pm 6 10 mph 1018.6mb 66f 84f
6:12pm 6 9 mph 1018.6mb 66f 84f
6:06pm 2 9 mph 1018.7mb 66f 85f
6:00pm 5 10 mph 1018.7mb 66f -
5:54pm 7 10 mph 1018.8mb 66f -
5:48pm  -  mph 1018.9mb - -
5:42pm  -  mph 1018.9mb - -
5:36pm  -  mph 1018.9mb - -